Location: Ahstedt
(52.2048°N, 10.1060°E)
Time: 00:38:35
(UTC+00:00)

Cosmos 2344 - Pass Details

Date: 18 January 2026
Orbit: 1195 x 3047 km, 63.3° (Epoch: 18 February)

Event Time Altitude Azimuth Distance (km) Brightness Sun altitude
Exits shadow 05:39:57 14° 314° (NW) 2,882 4.9 -14.6°
Maximum altitude 05:46:16 51° 28° (NNE) 1,673 4.3 -13.7°
Drops below altitude 10° 05:55:18 10° 103° (ESE) 3,959 7.7 -12.3°
Sets 05:59:01 0° 108° (ESE) 5,203 9.0 -11.8°
